User: anonymous   Login
Location: Daytona Beach
(29.2106°N, 81.0231°W)
Time: 06:31:23
(UTC-04:00)
Language:

ITAMSAT 1 - Orbit

View from above orbital plane
View from above orbital plane
View from above satellite
View from above satellite

Ground track
Ground track

The orbit data is extracted from the following two-line orbital elements,

1 22826U 93061D   21263.89668021  .00000011  00000-0  22034-4 0  9990
2 22826  98.9095 283.7412 0010050 102.9163 257.3141 14.30465015459872
Epoch (UTC): 20 September 2021 21:31:13
Eccentricity: 0.0010050
inclination: 98.9095°
perigee height: 783 km
apogee height: 797 km
right ascension of ascending node: 283.7412°
argument of perigee: 102.9163°
revolutions per day: 14.30465015
mean anomaly at epoch: 257.3141°
orbit number at epoch: 45987

The dashed part of the orbit path shows where the satellite is in the earth's shadow,  

DLR